Location: ?????????
(55.6553°N, 38.9075°E)
Time: 12:10:42
(UTC+00:00)

IDEFIX/ARIANE 42P - Pass Details

Date: 18 October 2019
Orbit: 785 x 803 km, 98.3° (Epoch: 14 November)

Event Time Altitude Azimuth Distance (km) Brightness Sun altitude
Rises 01:34:18 0° 15° (NNE) 3,324 6.2 -21.1°
Reaches altitude 10° 01:36:39 10° 15° (NNE) 2,388 5.4 -20.8°
Maximum altitude 01:41:57 87° 288° (WNW) 807 2.5 -20.1°
Enters shadow 01:46:19 15° 200° (SSW) 2,024 4.4 -19.5°
